Hourly Data Report for February 03, 2021

OTTAWA INTL A
ONTARIO
Current Station Operator: NAVCAN

45°19'00.000" N
75°40'00.000" W
114.90 m
6106001
71628
YOW

Download Data

Hourly Data (February 2021)
Hourly Data Report for February 3, 2021
TIME
LST
Temp Definition
°C
Dew Point Definition
°C
Rel Hum Definition
%
Precip. Amount Definition
mm

Wind Dir Definition
10's deg

Wind Spd Definition
km/h
Visibility Definition
km
Stn Press Definition
kPa
Hmdx Definition


Wind Chill Definition


Weather Definition


00:00 -3.0 -4.7 88   35 19 2.8 99.10   -9 Snow
01:00 -3.0 -5.2 84   35 25 3.2 99.05   -10 Snow,Blowing Snow
02:00 -3.3 -4.7 90   35 22 1.0 99.04   -10 Snow
03:00 -3.7 -4.9 92   34 25 1.2 99.01   -11 Snow,Blowing Snow
04:00 -3.7 -5.8 85   33 26 12.9 98.99   -11 Snow
05:00 -3.3 -7.2 74   34 26 8.1 98.99   -10 Snow
06:00 -3.6 -8.6 69   32 21 24.1 99.02   -10 Snow
07:00 -3.9 -8.8 69   32 25 24.1 99.02   -11 Cloudy
08:00 -4.2 -9.2 69   32 28 24.1 99.08   -12 LegendNANA
09:00 -4.2 -9.4 68   33 29 24.1 99.09   -12 LegendNANA
10:00 -4.2 -9.6 66   32 28 24.1 99.09   -12 Mostly Cloudy
11:00 -4.1 -9.4 67   32 30 24.1 99.09   -12 LegendNANA
12:00 -4.1 -9.5 67   31 26 24.1 99.03   -11 LegendNANA
13:00 -2.3 -9.2 59   31 23 24.1 99.00   -9 Mostly Cloudy
14:00 -0.2 -7.8 57   33 23 24.1 98.98   -6 LegendNANA
15:00 0.8 -7.4 54   33 29 24.1 98.98     LegendNANA
16:00 1.2 -7.3 53   33 30 24.1 98.99     Mostly Cloudy
17:00 -0.3 -7.1 60   31 17 24.1 99.00   -5 LegendNANA
18:00 -0.3 -7.5 58   31 25 24.1 99.05   -6 LegendNANA
19:00 -0.7 -8.6 55   32 23 24.1 99.11   -7 Mainly Clear
20:00 -1.5 -9.0 57   32 21 24.1 99.13   -7 LegendNANA
21:00 -1.2 -9.0 55   32 23 24.1 99.16   -7 LegendNANA
22:00 -2.4 -9.2 59   32 23 24.1 99.23   -9 Mainly Clear
23:00 -2.3 -9.2 59   32 25 24.1 99.28   -9 LegendNANA

Notes on Data Quality.

Legend

  • E = Estimated
  • M = Missing
  • NA = Not Available*
  • [empty] = Indicates an unobserved value
Date modified: